Time,TemperatureF,DewpointF,PressureIn,WindDirection,WindDirectionDegrees,WindSpeedMPH,WindSpeedGustMPH,Humidity,HourlyPrecipIn,Conditions,Clouds,dailyrainin,SolarRadiationWatts/m^2,SoftwareType,DateUTC
2013-01-21 00:00:00,28.0,11.8,29.92,WNW,290,17.0,37.0,50,0.00,CLR,SKC,0.00,0.0,WeatherDisplay:10.37,2013-01-21 05:00:00,
2013-01-21 00:15:00,27.0,14.1,29.85,WNW,300,15.0,37.0,58,0.00,FEW,SKC,0.00,0.0,WeatherDisplay:10.37,2013-01-21 05:15:00,
2013-01-21 00:30:00,27.0,14.1,29.86,WNW,300,15.0,32.0,58,0.00,FEW,SKC,0.00,0.0,WeatherDisplay:10.37,2013-01-21 05:30:00,
2013-01-21 00:45:00,27.0,14.1,29.89,WNW,300,15.0,32.0,58,0.00,FEW,SKC,0.00,0.0,WeatherDisplay:10.37,2013-01-21 05:45:00,
2013-01-21 01:01:00,27.0,14.1,29.87,WNW,300,15.0,32.0,58,0.00,FEW,SKC,0.00,0.0,WeatherDisplay:10.37,2013-01-21 06:01:00,
2013-01-21 01:16:00,25.0,11.9,29.86,WNW,300,16.0,32.0,57,0.00,CLR,SKC,0.00,0.0,WeatherDisplay:10.37,2013-01-21 06:16:00,
2013-01-21 01:30:00,25.0,11.9,29.88,WNW,300,16.0,30.0,57,0.00,CLR,SKC,0.00,0.0,WeatherDisplay:10.37,2013-01-21 06:30:00,
2013-01-21 01:45:00,25.0,11.9,29.88,WNW,300,16.0,30.0,57,0.00,CLR,SKC,0.00,0.0,WeatherDisplay:10.37,2013-01-21 06:45:00,
2013-01-21 02:00:00,25.0,11.9,29.92,WNW,300,16.0,30.0,57,0.00,CLR,SKC,0.00,0.0,WeatherDisplay:10.37,2013-01-21 07:00:00,
2013-01-21 02:15:00,24.1,9.4,29.90,WNW,300,8.0,30.0,53,0.00,CLR,SKC,0.00,0.0,WeatherDisplay:10.37,2013-01-21 07:15:00,
2013-01-21 02:30:00,24.1,9.4,29.91,WNW,300,8.0,29.0,53,0.00,CLR,SKC,0.00,0.0,WeatherDisplay:10.37,2013-01-21 07:30:00,
2013-01-21 02:45:00,24.1,9.4,29.92,WNW,300,8.0,29.0,53,0.00,CLR,SKC,0.00,0.0,WeatherDisplay:10.37,2013-01-21 07:45:00,
2013-01-21 03:00:00,24.1,9.4,29.94,WNW,300,8.0,29.0,53,0.00,CLR,SKC,0.00,0.0,WeatherDisplay:10.37,2013-01-21 08:00:00,
2013-01-21 03:15:00,21.9,9.8,29.91,West,260,5.0,29.0,59,0.00,CLR,SKC,0.00,0.0,WeatherDisplay:10.37,2013-01-21 08:15:00,
2013-01-21 03:30:00,21.9,9.8,29.93,West,260,5.0,5.0,59,0.00,CLR,SKC,0.00,0.0,WeatherDisplay:10.37,2013-01-21 08:30:00,
2013-01-21 03:45:00,21.9,9.8,29.93,West,260,5.0,5.0,59,0.00,CLR,SKC,0.00,0.0,WeatherDisplay:10.37,2013-01-21 08:45:00,
2013-01-21 04:00:00,21.9,9.8,29.92,West,260,5.0,5.0,59,0.00,CLR,SKC,0.00,0.0,WeatherDisplay:10.37,2013-01-21 09:00:00,
2013-01-21 04:15:00,21.9,8.2,29.91,West,270,7.0,7.0,55,0.00,CLR,SKC,0.00,0.0,WeatherDisplay:10.37,2013-01-21 09:15:00,
2013-01-21 04:30:00,21.9,8.2,29.93,West,270,7.0,7.0,55,0.00,CLR,SKC,0.00,0.0,WeatherDisplay:10.37,2013-01-21 09:30:00,
2013-01-21 04:45:00,21.9,8.2,29.92,West,270,7.0,7.0,55,0.00,CLR,SKC,0.00,0.0,WeatherDisplay:10.37,2013-01-21 09:45:00,
2013-01-21 05:00:00,21.9,8.2,29.94,West,270,7.0,7.0,55,0.00,CLR,SKC,0.00,0.0,WeatherDisplay:10.37,2013-01-21 10:00:00,
2013-01-21 05:15:00,19.9,7.9,30.01,WNW,300,6.0,7.0,59,0.00,CLR,SKC,0.00,0.0,WeatherDisplay:10.37,2013-01-21 10:15:00,
2013-01-21 05:30:00,19.9,7.9,29.95,WNW,300,6.0,6.0,59,0.00,CLR,SKC,0.00,0.0,WeatherDisplay:10.37,2013-01-21 10:30:00,
2013-01-21 05:45:00,19.9,7.9,29.96,WNW,300,6.0,6.0,59,0.00,CLR,SKC,0.00,0.0,WeatherDisplay:10.37,2013-01-21 10:45:00,
2013-01-21 06:00:00,19.9,7.9,29.94,WNW,300,6.0,6.0,59,0.00,CLR,SKC,0.00,0.0,WeatherDisplay:10.37,2013-01-21 11:00:00,
2013-01-21 06:15:00,19.9,7.1,29.96,WSW,240,5.0,6.0,57,0.00,CLR,SKC,0.00,0.0,WeatherDisplay:10.37,2013-01-21 11:15:00,
2013-01-21 06:30:00,19.9,7.1,29.95,WSW,240,5.0,5.0,57,0.00,CLR,SKC,0.00,0.0,WeatherDisplay:10.37,2013-01-21 11:30:00,
2013-01-21 06:45:00,19.9,7.1,29.96,WSW,240,5.0,5.0,57,0.00,CLR,SKC,0.00,0.0,WeatherDisplay:10.37,2013-01-21 11:45:00,
2013-01-21 07:00:00,19.9,7.1,29.97,WSW,240,5.0,5.0,57,0.00,CLR,SKC,0.00,0.0,WeatherDisplay:10.37,2013-01-21 12:00:00,
2013-01-21 07:15:00,19.9,7.1,29.97,West,270,5.0,5.0,57,0.00,CLR,SKC,0.00,0.0,WeatherDisplay:10.37,2013-01-21 12:15:00,
2013-01-21 07:30:00,19.9,7.1,29.95,West,270,5.0,5.0,57,0.00,CLR,SKC,0.00,0.0,WeatherDisplay:10.37,2013-01-21 12:30:00,
2013-01-21 07:45:00,19.9,7.1,29.95,West,270,5.0,5.0,57,0.00,CLR,SKC,0.00,0.0,WeatherDisplay:10.37,2013-01-21 12:45:00,
2013-01-21 08:00:00,19.9,7.1,29.98,West,270,5.0,5.0,57,0.00,CLR,SKC,0.00,0.0,WeatherDisplay:10.37,2013-01-21 13:00:00,
2013-01-21 08:15:00,19.9,5.9,29.95,West,270,0.0,5.0,54,0.00,CLR,SKC,0.00,0.0,WeatherDisplay:10.37,2013-01-21 13:15:00,
2013-01-21 08:30:00,19.9,5.9,29.98,West,270,0.0,0.0,54,0.00,CLR,SKC,0.00,0.0,WeatherDisplay:10.37,2013-01-21 13:30:00,
2013-01-21 08:45:00,19.9,5.9,30.00,West,270,0.0,0.0,54,0.00,CLR,SKC,0.00,0.0,WeatherDisplay:10.37,2013-01-21 13:45:00,
2013-01-21 09:00:00,19.9,5.9,29.98,West,270,0.0,0.0,54,0.00,CLR,SKC,0.00,0.0,WeatherDisplay:10.37,2013-01-21 14:00:00,
2013-01-21 09:15:00,21.9,7.4,29.99,West,270,5.0,5.0,53,0.00,OVC,SKC,0.00,0.0,WeatherDisplay:10.37,2013-01-21 14:15:00,
2013-01-21 09:31:00,21.9,7.4,30.02,West,270,5.0,5.0,53,0.00,OVC,SKC,0.00,0.0,WeatherDisplay:10.37,2013-01-21 14:31:00,
2013-01-21 09:45:00,21.9,7.4,29.99,West,270,5.0,5.0,53,0.00,OVC,SKC,0.00,0.0,WeatherDisplay:10.37,2013-01-21 14:45:00,
2013-01-21 10:00:00,21.9,7.4,29.98,West,270,5.0,5.0,53,0.00,OVC,SKC,0.00,0.0,WeatherDisplay:10.37,2013-01-21 15:00:00,
2013-01-21 10:15:00,23.0,8.4,30.05,West,270,5.0,5.0,53,0.00,BKN,SKC,0.00,0.0,WeatherDisplay:10.37,2013-01-21 15:15:00,
2013-01-21 10:30:00,23.0,8.4,30.00,West,270,5.0,5.0,53,0.00,BKN,SKC,0.00,0.0,WeatherDisplay:10.37,2013-01-21 15:30:00,
2013-01-21 10:45:00,23.0,8.4,29.98,West,270,5.0,5.0,53,0.00,BKN,SKC,0.00,0.0,WeatherDisplay:10.37,2013-01-21 15:45:00,
2013-01-21 11:00:00,23.0,8.4,29.96,West,270,5.0,5.0,53,0.00,CLR,SKC,0.00,0.0,WeatherDisplay:10.37,2013-01-21 16:00:00,
2013-01-21 11:15:00,25.0,8.5,30.00,NW,320,8.0,8.0,49,0.00,OVC,SKC,0.00,0.0,WeatherDisplay:10.37,2013-01-21 16:15:00,
2013-01-21 11:30:00,25.0,8.5,29.93,NW,320,8.0,8.0,49,0.00,OVC,SKC,0.00,0.0,WeatherDisplay:10.37,2013-01-21 16:30:00,
2013-01-21 11:45:00,25.0,8.5,29.92,NW,320,8.0,8.0,49,0.00,OVC,SKC,0.00,0.0,WeatherDisplay:10.37,2013-01-21 16:45:00,
2013-01-21 12:00:00,25.0,8.5,29.91,NW,320,8.0,8.0,49,0.00,OVC,SKC,0.00,0.0,WeatherDisplay:10.37,2013-01-21 17:00:00,
2013-01-21 12:15:00,25.0,8.0,29.90,West,270,5.0,8.0,48,0.00,OVC,SKC,0.00,0.0,WeatherDisplay:10.37,2013-01-21 17:15:00,
2013-01-21 12:30:00,25.0,8.0,29.98,West,270,5.0,5.0,48,0.00,OVC,SKC,0.00,0.0,WeatherDisplay:10.37,2013-01-21 17:30:00,
2013-01-21 12:45:00,25.0,8.0,29.91,West,270,5.0,5.0,48,0.00,OVC,SKC,0.00,0.0,WeatherDisplay:10.37,2013-01-21 17:45:00,
2013-01-21 13:00:00,25.0,8.0,30.01,West,270,5.0,5.0,48,0.00,OVC,SKC,0.00,0.0,WeatherDisplay:10.37,2013-01-21 18:00:00,
2013-01-21 13:15:00,26.1,8.6,29.90,SW,230,7.0,7.0,47,0.00,OVC,SKC,0.00,0.0,WeatherDisplay:10.37,2013-01-21 18:15:00,
2013-01-21 13:30:00,26.1,8.6,29.90,SW,230,7.0,7.0,47,0.00,OVC,SKC,0.00,0.0,WeatherDisplay:10.37,2013-01-21 18:30:00,
2013-01-21 13:45:00,26.1,8.6,29.90,SW,230,7.0,7.0,47,0.00,OVC,SKC,0.00,0.0,WeatherDisplay:10.37,2013-01-21 18:45:00,
2013-01-21 14:00:00,26.1,8.6,29.88,SW,230,7.0,7.0,47,0.00,OVC,SKC,0.00,0.0,WeatherDisplay:10.37,2013-01-21 19:00:00,
2013-01-21 14:15:00,26.1,9.5,29.87,WSW,250,8.0,8.0,49,0.00,OVC,SKC,0.00,0.0,WeatherDisplay:10.37,2013-01-21 19:15:00,
2013-01-21 14:30:00,26.1,9.5,29.90,WSW,250,8.0,8.0,49,0.00,OVC,SKC,0.00,0.0,WeatherDisplay:10.37,2013-01-21 19:30:00,
2013-01-21 14:45:00,26.1,9.5,29.92,WSW,250,8.0,8.0,49,0.00,OVC,SKC,0.00,0.0,WeatherDisplay:10.37,2013-01-21 19:45:00,
2013-01-21 15:00:00,26.1,9.5,29.85,WSW,250,8.0,8.0,49,0.00,OVC,SKC,0.00,0.0,WeatherDisplay:10.37,2013-01-21 20:00:00,
2013-01-21 15:15:00,26.1,10.4,29.94,SSW,200,6.0,8.0,51,0.00,OVC,SKC,0.00,0.0,WeatherDisplay:10.37,2013-01-21 20:15:00,
2013-01-21 15:30:00,26.1,10.4,29.92,SSW,200,6.0,6.0,51,0.00,OVC,SKC,0.00,0.0,WeatherDisplay:10.37,2013-01-21 20:30:00,
2013-01-21 15:45:00,26.1,10.4,29.86,SSW,200,6.0,6.0,51,0.00,OVC,SKC,0.00,0.0,WeatherDisplay:10.37,2013-01-21 20:45:00,
2013-01-21 16:00:00,26.1,10.4,29.85,SSW,200,6.0,6.0,51,0.00,OVC,SKC,0.00,0.0,WeatherDisplay:10.37,2013-01-21 21:00:00,
2013-01-21 16:15:00,27.0,11.7,29.83,SSW,200,6.0,6.0,52,0.00,OVC,SKC,0.00,0.0,WeatherDisplay:10.37,2013-01-21 21:15:00,
2013-01-21 16:30:00,27.0,11.7,29.85,SSW,200,6.0,6.0,52,0.00,OVC,SKC,0.00,0.0,WeatherDisplay:10.37,2013-01-21 21:30:00,
2013-01-21 16:45:00,27.0,11.7,29.86,SSW,200,6.0,6.0,52,0.00,OVC,SKC,0.00,0.0,WeatherDisplay:10.37,2013-01-21 21:45:00,
2013-01-21 17:00:00,27.0,11.7,29.89,SSW,200,6.0,6.0,52,0.00,OVC,SKC,0.00,0.0,WeatherDisplay:10.37,2013-01-21 22:00:00,
2013-01-21 17:15:00,25.0,13.8,29.85,WSW,240,5.0,6.0,62,0.00,OVC,SKC,0.00,0.0,WeatherDisplay:10.37,2013-01-21 22:15:00,
2013-01-21 17:30:00,25.0,13.8,29.83,WSW,240,5.0,5.0,62,0.00,OVC,SKC,0.00,0.0,WeatherDisplay:10.37,2013-01-21 22:30:00,
2013-01-21 17:45:00,23.0,18.6,29.83,SW,215,5.0,5.0,83,0.00,-SN,SKC,0.00,0.0,WeatherDisplay:10.37,2013-01-21 22:45:00,
2013-01-21 18:00:00,23.0,18.6,29.83,South,190,5.0,5.0,83,0.00,OVC,SKC,0.00,0.0,WeatherDisplay:10.37,2013-01-21 23:00:00,
2013-01-21 18:15:00,23.0,19.7,29.88,South,170,3.0,5.0,87,0.00,-SN,SKC,0.00,0.0,WeatherDisplay:10.37,2013-01-21 23:15:00,
2013-01-21 18:30:00,23.0,20.2,29.84,South,170,3.0,3.0,89,0.00,-SN,SKC,0.00,0.0,WeatherDisplay:10.37,2013-01-21 23:30:00,
2013-01-21 18:45:00,23.0,20.2,29.84,South,170,3.0,3.0,89,0.00,-SN,SKC,0.00,0.0,WeatherDisplay:10.37,2013-01-21 23:45:00,
2013-01-21 19:00:00,23.0,20.2,29.85,South,170,3.0,3.0,89,0.00,OVC,SKC,0.00,0.0,WeatherDisplay:10.37,2013-01-22 00:00:00,
2013-01-21 19:15:00,23.0,21.5,29.91,South,170,0.0,3.0,94,0.01,-SN,SKC,0.01,0.0,WeatherDisplay:10.37,2013-01-22 00:15:00,
2013-01-21 19:30:00,23.0,21.5,29.83,South,170,0.0,0.0,94,0.00,-SN,SKC,0.01,0.0,WeatherDisplay:10.37,2013-01-22 00:30:00,
2013-01-21 19:45:00,23.0,21.5,29.83,South,170,0.0,0.0,94,0.00,-SN,SKC,0.01,0.0,WeatherDisplay:10.37,2013-01-22 00:45:00,
2013-01-21 20:00:00,21.2,20.0,29.83,South,170,0.0,0.0,95,0.00,-SN,SKC,0.02,0.0,WeatherDisplay:10.37,2013-01-22 01:00:00,
2013-01-21 20:30:00,21.9,20.5,29.83,North,0,0.0,0.0,94,0.00,-SN,SKC,0.03,0.0,WeatherDisplay:10.37,2013-01-22 01:30:00,
2013-01-21 20:45:00,21.9,20.5,29.87,North,0,0.0,0.0,94,0.00,-SN,SKC,0.03,0.0,WeatherDisplay:10.37,2013-01-22 01:45:00,
2013-01-21 21:00:00,21.9,20.5,29.81,North,0,0.0,0.0,94,0.00,-SN,SKC,0.04,0.0,WeatherDisplay:10.37,2013-01-22 02:00:00,
2013-01-21 21:15:00,21.2,20.0,29.81,North,0,0.0,0.0,95,0.01,OVC,SKC,0.04,0.0,WeatherDisplay:10.37,2013-01-22 02:15:00,
2013-01-21 21:30:00,21.2,20.0,29.78,North,0,0.0,0.0,95,0.00,OVC,SKC,0.04,0.0,WeatherDisplay:10.37,2013-01-22 02:30:00,
2013-01-21 21:45:00,21.2,20.0,29.76,North,0,0.0,0.0,95,0.00,OVC,SKC,0.04,0.0,WeatherDisplay:10.37,2013-01-22 02:45:00,
2013-01-21 22:00:00,21.2,20.0,29.80,North,0,0.0,0.0,95,0.00,-SN,SKC,0.04,0.0,WeatherDisplay:10.37,2013-01-22 03:00:00,
2013-01-21 22:15:00,21.9,20.5,29.76,North,0,0.0,0.0,94,0.00,OVC,SKC,0.04,0.0,WeatherDisplay:10.37,2013-01-22 03:15:00,
2013-01-21 22:30:00,21.9,20.5,29.78,North,0,0.0,0.0,94,0.00,OVC,SKC,0.04,0.0,WeatherDisplay:10.37,2013-01-22 03:30:00,
2013-01-21 22:45:00,21.2,20.0,29.74,North,0,0.0,0.0,95,0.00,BKN,SKC,0.04,0.0,WeatherDisplay:10.37,2013-01-22 03:45:00,
2013-01-21 23:00:00,21.2,20.0,29.73,North,0,0.0,0.0,95,0.00,OVC,SKC,0.04,0.0,WeatherDisplay:10.37,2013-01-22 04:00:00,
2013-01-21 23:15:00,19.9,19.9,29.73,North,0,0.0,0.0,100,0.00,BKN,SKC,0.04,0.0,WeatherDisplay:10.37,2013-01-22 04:15:00,
2013-01-21 23:30:00,19.9,19.9,29.75,North,0,0.0,0.0,100,0.00,BKN,SKC,0.04,0.0,WeatherDisplay:10.37,2013-01-22 04:30:00,
2013-01-21 23:45:00,19.9,19.9,29.70,North,0,0.0,0.0,100,0.00,BKN,SKC,0.04,0.0,WeatherDisplay:10.37,2013-01-22 04:45:00,